MRA208 KADS-KE38

Flight info

Callsign MRA208
Flight time N/A
Altitude 12000
Route KING5 PODDE FST
Aircraft C208/L-SDFGR/C

Departure

Time 2026-04-24 23:33
Airport Addison Airport (KADS)

Arrival

Time N/A
Airport Alpine Casparis Municipal Airport (KE38)
Time Latitude Longitude Altitude Speed Heading
2026-04-24 23:17 32.97046 -96.83573 644 ft 0 kts 249°
2026-04-24 23:27 32.97050 -96.83581 644 ft 4 kts 329°
2026-04-24 23:27 32.97091 -96.83605 644 ft 9 kts 252°
2026-04-24 23:27 32.97104 -96.83652 644 ft 6 kts 343°
2026-04-24 23:28 32.97151 -96.83671 643 ft 7 kts 340°
2026-04-24 23:28 32.97196 -96.83691 643 ft 7 kts 339°
2026-04-24 23:28 32.97260 -96.83721 643 ft 14 kts 340°
2026-04-24 23:28 32.97365 -96.83767 643 ft 14 kts 339°
2026-04-24 23:29 32.97441 -96.83800 642 ft 9 kts 341°
2026-04-24 23:29 32.97490 -96.83819 642 ft 5 kts 341°
2026-04-24 23:29 32.97521 -96.83832 642 ft 7 kts 340°
2026-04-24 23:29 32.97595 -96.83866 642 ft 14 kts 341°
2026-04-24 23:30 32.97671 -96.83898 641 ft 10 kts 339°
2026-04-24 23:30 32.97733 -96.83926 641 ft 9 kts 340°
2026-04-24 23:30 32.97780 -96.83948 641 ft 4 kts 330°
2026-04-24 23:30 32.97786 -96.83955 641 ft 0 kts 309°
2026-04-24 23:31 32.97791 -96.83973 641 ft 6 kts 278°
2026-04-24 23:31 32.97783 -96.84043 642 ft 8 kts 244°
2026-04-24 23:31 32.97755 -96.84037 642 ft 4 kts 155°
2026-04-24 23:32 32.97662 -96.84000 641 ft 35 kts 159°
2026-04-24 23:32 32.97288 -96.83836 643 ft 79 kts 160°
2026-04-24 23:32 32.96713 -96.83520 730 ft 101 kts 154°
2026-04-24 23:32 32.96233 -96.82939 1049 ft 109 kts 103°
2026-04-24 23:33 32.96311 -96.81983 1253 ft 117 kts 77°
2026-04-24 23:33 32.96673 -96.81111 1438 ft 118 kts 58°
2026-04-24 23:33 32.97081 -96.80306 1652 ft 113 kts 57°
2026-04-24 23:33 32.97457 -96.79502 1939 ft 110 kts 57°
2026-04-24 23:34 32.97869 -96.78668 2097 ft 123 kts 56°
2026-04-24 23:34 32.98314 -96.77744 2266 ft 132 kts 57°
2026-04-24 23:34 32.98787 -96.76788 2509 ft 135 kts 57°
2026-04-24 23:34 32.99265 -96.75824 2766 ft 135 kts 55°
2026-04-24 23:35 32.99771 -96.74880 3013 ft 138 kts 56°
2026-04-24 23:35 33.00268 -96.73912 3262 ft 137 kts 55°
2026-04-24 23:35 33.00780 -96.72935 3504 ft 141 kts 55°
2026-04-24 23:35 33.01109 -96.71852 3718 ft 141 kts 95°
2026-04-24 23:36 33.00639 -96.70917 3949 ft 132 kts 155°
2026-04-24 23:36 32.99802 -96.70891 4186 ft 121 kts 212°
2026-04-24 23:36 32.99101 -96.71431 4441 ft 119 kts 215°
2026-04-24 23:36 32.98402 -96.71951 4688 ft 118 kts 216°
2026-04-24 23:37 32.97703 -96.72457 4921 ft 117 kts 216°
2026-04-24 23:37 32.96988 -96.72984 5001 ft 128 kts 216°
2026-04-24 23:37 32.95381 -96.74183 5009 ft 142 kts 216°
2026-04-24 23:38 32.94546 -96.74819 5072 ft 143 kts 216°
2026-04-24 23:38 32.93708 -96.75453 5289 ft 141 kts 217°
2026-04-24 23:38 32.92879 -96.76062 5527 ft 138 kts 216°
2026-04-24 23:38 32.92073 -96.76635 5761 ft 135 kts 216°
2026-04-24 23:39 32.91269 -96.77203 6002 ft 133 kts 216°
2026-04-24 23:39 32.90472 -96.77746 6231 ft 130 kts 216°
2026-04-24 23:39 32.89686 -96.78275 6453 ft 128 kts 216°
2026-04-24 23:39 32.88914 -96.78789 6685 ft 126 kts 216°
2026-04-24 23:40 32.88144 -96.79286 6905 ft 125 kts 216°
2026-04-24 23:40 32.87390 -96.79779 7137 ft 123 kts 216°
2026-04-24 23:40 32.86640 -96.80268 7371 ft 122 kts 216°
2026-04-24 23:40 32.85896 -96.80746 7603 ft 121 kts 216°
2026-04-24 23:41 32.85157 -96.81224 7843 ft 120 kts 216°
2026-04-24 23:41 32.84425 -96.81694 8083 ft 119 kts 216°
2026-04-24 23:41 32.83698 -96.82160 8301 ft 121 kts 216°
2026-04-24 23:41 32.82939 -96.82649 8426 ft 127 kts 216°
2026-04-24 23:42 32.82144 -96.83166 8570 ft 133 kts 216°
2026-04-24 23:42 32.81321 -96.83707 8707 ft 137 kts 216°
2026-04-24 23:42 32.80480 -96.84260 8873 ft 138 kts 216°
2026-04-24 23:42 32.79653 -96.84795 9080 ft 136 kts 216°
2026-04-24 23:43 32.78827 -96.85334 9281 ft 135 kts 216°
2026-04-24 23:43 32.78001 -96.85867 9480 ft 135 kts 216°
2026-04-24 23:43 32.77228 -96.86460 9663 ft 128 kts 236°
2026-04-24 23:43 32.77081 -96.87421 9845 ft 122 kts 284°
2026-04-24 23:44 32.77226 -96.88400 10039 ft 120 kts 269°
2026-04-24 23:44 32.77202 -96.89390 10226 ft 119 kts 268°
2026-04-24 23:44 32.77169 -96.90371 10414 ft 119 kts 267°
2026-04-24 23:44 32.77127 -96.91353 10605 ft 119 kts 267°
2026-04-24 23:45 32.77080 -96.92336 10794 ft 119 kts 266°
2026-04-24 23:45 32.77031 -96.93313 10986 ft 118 kts 266°
2026-04-24 23:45 32.76982 -96.94284 11191 ft 117 kts 267°
2026-04-24 23:45 32.76932 -96.95241 11402 ft 116 kts 267°
2026-04-24 23:46 32.76882 -96.96194 11597 ft 115 kts 266°
2026-04-24 23:46 32.76832 -96.97156 11730 ft 118 kts 267°
2026-04-24 23:46 32.76784 -96.98114 11847 ft 113 kts 267°
2026-04-24 23:46 32.76735 -96.99023 11956 ft 108 kts 266°
2026-04-24 23:47 32.76687 -96.99905 12018 ft 107 kts 267°
2026-04-24 23:47 32.76640 -97.00811 12024 ft 113 kts 267°
2026-04-24 23:47 32.76591 -97.01760 12038 ft 120 kts 267°
2026-04-24 23:47 32.76538 -97.02771 12039 ft 125 kts 267°
2026-04-24 23:48 32.76483 -97.03828 12009 ft 131 kts 266°
2026-04-24 23:48 32.76426 -97.04915 12010 ft 133 kts 266°
2026-04-24 23:48 32.76367 -97.06019 12011 ft 134 kts 266°
2026-04-24 23:48 32.76309 -97.07130 12011 ft 135 kts 266°
2026-04-24 23:49 32.76249 -97.08253 12010 ft 136 kts 266°
2026-04-24 23:49 32.76189 -97.09384 12009 ft 137 kts 266°
2026-04-24 23:49 32.76129 -97.10501 12009 ft 137 kts 266°
2026-04-24 23:49 32.76068 -97.11635 12006 ft 138 kts 266°
2026-04-24 23:50 32.76007 -97.12778 12007 ft 138 kts 266°
2026-04-24 23:50 32.75947 -97.13914 12005 ft 137 kts 266°
2026-04-24 23:50 32.75886 -97.15046 12004 ft 137 kts 266°
2026-04-24 23:50 32.75825 -97.16181 11984 ft 137 kts 266°
2026-04-24 23:51 32.75764 -97.17313 11983 ft 137 kts 266°
2026-04-24 23:51 32.75703 -97.18442 11983 ft 137 kts 266°
2026-04-24 23:51 32.75642 -97.19575 11980 ft 137 kts 266°
2026-04-24 23:51 32.75581 -97.20708 11978 ft 138 kts 266°
2026-04-24 23:52 32.75519 -97.21843 11980 ft 137 kts 266°
2026-04-24 23:52 32.75458 -97.22977 11980 ft 137 kts 266°
2026-04-24 23:52 32.75396 -97.24097 11980 ft 138 kts 266°
2026-04-24 23:52 32.75335 -97.25231 11982 ft 137 kts 266°
2026-04-24 23:53 32.75273 -97.26364 11984 ft 137 kts 266°
2026-04-24 23:53 32.75211 -97.27499 11985 ft 138 kts 266°
2026-04-24 23:53 32.75149 -97.28636 11985 ft 138 kts 266°
2026-04-24 23:53 32.75087 -97.29772 11988 ft 138 kts 266°
2026-04-24 23:54 32.75025 -97.30906 11986 ft 138 kts 266°
2026-04-24 23:54 32.74962 -97.32041 11987 ft 137 kts 266°
2026-04-24 23:54 32.74900 -97.33174 11986 ft 137 kts 266°
2026-04-24 23:54 32.74837 -97.34310 11987 ft 138 kts 266°
2026-04-24 23:55 32.74774 -97.35447 11987 ft 138 kts 266°
2026-04-24 23:55 32.74712 -97.36569 11986 ft 138 kts 266°
2026-04-24 23:55 32.74650 -97.37702 11985 ft 137 kts 266°
2026-04-24 23:55 32.74587 -97.38833 11983 ft 137 kts 266°
2026-04-24 23:56 32.74522 -97.39969 11986 ft 138 kts 266°
2026-04-24 23:56 32.74460 -97.41108 11986 ft 139 kts 266°
2026-04-24 23:56 32.74396 -97.42253 11986 ft 139 kts 266°
2026-04-24 23:56 32.74333 -97.43398 11987 ft 139 kts 266°
2026-04-24 23:57 32.74268 -97.44545 11985 ft 139 kts 266°
2026-04-24 23:57 32.74204 -97.45686 11984 ft 138 kts 266°
2026-04-24 23:57 32.74140 -97.46818 11983 ft 137 kts 266°
2026-04-24 23:57 32.74077 -97.47947 11982 ft 137 kts 266°
2026-04-24 23:58 32.74013 -97.49077 11982 ft 137 kts 266°
2026-04-24 23:58 32.73951 -97.50190 11982 ft 137 kts 266°
2026-04-24 23:58 32.73886 -97.51321 11980 ft 137 kts 266°
2026-04-24 23:58 32.73822 -97.52457 11981 ft 138 kts 266°
2026-04-24 23:59 32.73758 -97.53594 11983 ft 138 kts 266°
2026-04-24 23:59 32.73693 -97.54736 11983 ft 138 kts 266°
2026-04-24 23:59 32.73628 -97.55874 11980 ft 138 kts 266°
2026-04-24 23:59 32.73563 -97.57009 11976 ft 137 kts 266°
2026-04-25 00:00 32.73499 -97.58140 11992 ft 137 kts 266°
2026-04-25 00:00 32.73434 -97.59275 11992 ft 137 kts 266°
2026-04-25 00:00 32.73369 -97.60406 11986 ft 137 kts 266°
2026-04-25 00:00 32.73305 -97.61522 11989 ft 137 kts 266°
2026-04-25 00:01 32.73240 -97.62669 11985 ft 138 kts 266°
2026-04-25 00:01 32.73174 -97.63802 11983 ft 138 kts 266°
2026-04-25 00:01 32.73109 -97.64924 11979 ft 138 kts 266°
2026-04-25 00:01 32.73044 -97.66058 11978 ft 137 kts 266°
2026-04-25 00:02 32.72979 -97.67189 11977 ft 137 kts 266°
2026-04-25 00:02 32.72913 -97.68322 12059 ft 138 kts 266°
2026-04-25 00:02 32.72848 -97.69455 12056 ft 137 kts 266°
2026-04-25 00:02 32.72781 -97.70586 12056 ft 137 kts 267°
2026-04-25 00:03 32.72716 -97.71715 12056 ft 137 kts 267°
2026-04-25 00:03 32.72651 -97.72839 12049 ft 136 kts 266°
2026-04-25 00:03 32.72452 -97.73934 12049 ft 138 kts 252°
2026-04-25 00:03 32.72102 -97.74995 12046 ft 138 kts 253°
2026-04-25 00:04 32.71770 -97.76061 12046 ft 138 kts 253°
2026-04-25 00:04 32.71438 -97.77127 12045 ft 138 kts 253°
2026-04-25 00:04 32.71104 -97.78198 12042 ft 138 kts 253°
2026-04-25 00:04 32.70769 -97.79273 12040 ft 139 kts 253°
2026-04-25 00:05 32.70433 -97.80350 11975 ft 139 kts 253°
2026-04-25 00:05 32.70096 -97.81427 11974 ft 139 kts 253°
2026-04-25 00:05 32.69758 -97.82506 11975 ft 140 kts 253°
2026-04-25 00:05 32.69421 -97.83586 11979 ft 139 kts 253°
2026-04-25 00:06 32.69084 -97.84664 11981 ft 139 kts 253°
2026-04-25 00:06 32.68748 -97.85741 11983 ft 139 kts 253°
2026-04-25 00:06 32.68410 -97.86818 11983 ft 139 kts 253°
2026-04-25 00:06 32.68076 -97.87885 11982 ft 139 kts 253°
2026-04-25 00:07 32.67738 -97.88964 11981 ft 139 kts 253°
2026-04-25 00:07 32.67401 -97.90042 11984 ft 139 kts 253°
2026-04-25 00:07 32.67064 -97.91119 11985 ft 139 kts 253°
2026-04-25 00:07 32.66726 -97.92195 11986 ft 139 kts 253°
2026-04-25 00:08 32.66390 -97.93268 11984 ft 139 kts 253°
2026-04-25 00:08 32.66053 -97.94341 11985 ft 138 kts 253°
2026-04-25 00:08 32.65718 -97.95410 11985 ft 138 kts 253°
2026-04-25 00:08 32.65382 -97.96478 11982 ft 138 kts 253°
2026-04-25 00:09 32.65046 -97.97547 11985 ft 138 kts 253°
2026-04-25 00:09 32.64711 -97.98618 11984 ft 138 kts 253°
2026-04-25 00:09 32.64374 -97.99688 11986 ft 139 kts 253°
2026-04-25 00:09 32.64038 -98.00760 11983 ft 138 kts 253°
2026-04-25 00:10 32.63815 -98.01465 11981 ft 138 kts 253°
2026-04-25 00:10 32.63481 -98.02530 11984 ft 138 kts 253°
2026-04-25 00:10 32.63146 -98.03596 11985 ft 138 kts 253°
2026-04-25 00:10 32.62808 -98.04668 11982 ft 139 kts 253°
2026-04-25 00:11 32.62470 -98.05742 11982 ft 139 kts 253°
2026-04-25 00:11 32.62132 -98.06815 11981 ft 139 kts 253°
2026-04-25 00:11 32.61793 -98.07892 11980 ft 139 kts 253°
2026-04-25 00:11 32.61454 -98.08970 11980 ft 139 kts 253°
2026-04-25 00:12 32.61114 -98.10045 11979 ft 139 kts 253°
2026-04-25 00:12 32.60775 -98.11122 11978 ft 139 kts 253°
2026-04-25 00:12 32.60436 -98.12196 11977 ft 139 kts 253°
2026-04-25 00:12 32.60097 -98.13271 11977 ft 139 kts 253°
2026-04-25 00:13 32.59757 -98.14346 11973 ft 139 kts 253°
2026-04-25 00:13 32.59418 -98.15422 11974 ft 139 kts 253°
2026-04-25 00:13 32.59078 -98.16497 11971 ft 139 kts 253°
2026-04-25 00:13 32.58738 -98.17575 11971 ft 140 kts 253°
2026-04-25 00:14 32.58401 -98.18637 11967 ft 139 kts 253°
2026-04-25 00:14 32.58062 -98.19711 11970 ft 139 kts 253°
2026-04-25 00:14 32.57723 -98.20782 11967 ft 139 kts 253°
2026-04-25 00:14 32.57383 -98.21856 11965 ft 139 kts 253°
2026-04-25 00:15 32.57043 -98.22930 11965 ft 139 kts 253°
2026-04-25 00:15 32.56704 -98.24000 11963 ft 138 kts 253°
2026-04-25 00:15 32.56365 -98.25070 11960 ft 138 kts 253°
2026-04-25 00:15 32.56027 -98.26140 11961 ft 138 kts 253°
2026-04-25 00:16 32.55687 -98.27210 11962 ft 138 kts 254°
2026-04-25 00:16 32.55349 -98.28278 11961 ft 139 kts 253°
2026-04-25 00:16 32.55008 -98.29348 11959 ft 139 kts 253°
2026-04-25 00:16 32.54670 -98.30415 11960 ft 138 kts 253°
2026-04-25 00:17 32.54333 -98.31477 11960 ft 138 kts 253°
2026-04-25 00:17 32.53996 -98.32541 11959 ft 138 kts 253°
2026-04-25 00:17 32.53663 -98.33589 11955 ft 138 kts 254°
2026-04-25 00:17 32.53324 -98.34653 11959 ft 138 kts 254°
2026-04-25 00:18 32.52986 -98.35719 11957 ft 138 kts 253°
2026-04-25 00:18 32.52647 -98.36784 11960 ft 137 kts 254°
2026-04-25 00:18 32.52308 -98.37846 11957 ft 138 kts 253°
2026-04-25 00:18 32.51969 -98.38916 11955 ft 138 kts 254°
2026-04-25 00:19 32.51629 -98.39983 11961 ft 139 kts 254°
2026-04-25 00:19 32.51290 -98.41050 11963 ft 139 kts 253°
2026-04-25 00:19 32.50949 -98.42118 11963 ft 139 kts 253°
2026-04-25 00:19 32.50609 -98.43187 11964 ft 138 kts 253°
2026-04-25 00:20 32.50267 -98.44259 11971 ft 139 kts 253°
2026-04-25 00:20 32.49925 -98.45333 11972 ft 140 kts 253°
2026-04-25 00:20 32.49581 -98.46411 11976 ft 140 kts 253°
2026-04-25 00:20 32.49236 -98.47490 11978 ft 140 kts 253°
2026-04-25 00:21 32.48892 -98.48569 11983 ft 140 kts 253°
2026-04-25 00:21 32.48547 -98.49647 11980 ft 140 kts 253°
2026-04-25 00:21 32.48204 -98.50720 11977 ft 139 kts 253°
2026-04-25 00:21 32.47869 -98.51772 11985 ft 138 kts 253°
2026-04-25 00:22 32.47529 -98.52836 11985 ft 138 kts 254°
2026-04-25 00:22 32.47186 -98.53910 11987 ft 139 kts 253°
2026-04-25 00:22 32.46842 -98.54985 11992 ft 140 kts 253°
2026-04-25 00:22 32.46496 -98.56067 11995 ft 141 kts 254°
2026-04-25 00:23 32.46149 -98.57151 11993 ft 140 kts 253°
2026-04-25 00:23 32.45804 -98.58225 12000 ft 139 kts 253°
2026-04-25 00:23 32.45460 -98.59300 12006 ft 140 kts 253°
2026-04-25 00:23 32.45120 -98.60363 12008 ft 140 kts 253°
2026-04-25 00:24 32.44773 -98.61446 12012 ft 140 kts 253°
2026-04-25 00:24 32.44427 -98.62525 12013 ft 140 kts 253°
2026-04-25 00:24 32.44080 -98.63609 12019 ft 141 kts 253°
2026-04-25 00:24 32.43731 -98.64695 12017 ft 140 kts 253°
2026-04-25 00:25 32.43384 -98.65776 12018 ft 140 kts 253°
2026-04-25 00:25 32.43038 -98.66856 12018 ft 140 kts 253°
2026-04-25 00:25 32.42690 -98.67939 12020 ft 141 kts 253°
2026-04-25 00:25 32.42342 -98.69021 12028 ft 141 kts 253°
2026-04-25 00:26 32.41994 -98.70105 12030 ft 141 kts 253°
2026-04-25 00:26 32.41649 -98.71179 12031 ft 141 kts 253°
2026-04-25 00:26 32.41300 -98.72262 12029 ft 141 kts 253°
2026-04-25 00:26 32.40952 -98.73343 12031 ft 140 kts 253°
2026-04-25 00:27 32.40605 -98.74422 12030 ft 140 kts 253°
2026-04-25 00:27 32.40258 -98.75502 12029 ft 140 kts 253°
2026-04-25 00:27 32.39909 -98.76583 12028 ft 141 kts 253°
2026-04-25 00:27 32.39561 -98.77664 12031 ft 141 kts 253°
2026-04-25 00:28 32.39211 -98.78754 12032 ft 141 kts 253°
2026-04-25 00:28 32.38861 -98.79839 12026 ft 141 kts 253°
2026-04-25 00:28 32.38511 -98.80925 12032 ft 141 kts 253°
2026-04-25 00:28 32.38161 -98.82009 12033 ft 141 kts 253°
2026-04-25 00:29 32.37810 -98.83094 12031 ft 141 kts 253°
2026-04-25 00:29 32.37462 -98.84174 12026 ft 140 kts 253°
2026-04-25 00:29 32.37118 -98.85237 12026 ft 140 kts 253°
2026-04-25 00:29 32.36770 -98.86315 12027 ft 140 kts 253°
2026-04-25 00:30 32.36423 -98.87391 12027 ft 140 kts 253°
2026-04-25 00:30 32.36075 -98.88467 12031 ft 140 kts 253°
2026-04-25 00:30 32.35726 -98.89548 12030 ft 141 kts 253°
2026-04-25 00:30 32.35375 -98.90630 12028 ft 141 kts 253°
2026-04-25 00:31 32.35026 -98.91713 12026 ft 141 kts 253°
2026-04-25 00:31 32.34675 -98.92795 12017 ft 141 kts 253°
2026-04-25 00:31 32.34325 -98.93877 12019 ft 141 kts 253°
2026-04-25 00:31 32.33980 -98.94943 12017 ft 141 kts 254°
2026-04-25 00:32 32.33624 -98.96037 12014 ft 141 kts 253°
2026-04-25 00:32 32.33279 -98.97103 12016 ft 140 kts 253°
2026-04-25 00:32 32.32931 -98.98178 12007 ft 140 kts 253°
2026-04-25 00:32 32.32582 -98.99254 12009 ft 140 kts 253°
2026-04-25 00:33 32.32233 -99.00329 12009 ft 140 kts 253°
2026-04-25 00:33 32.31885 -99.01402 12009 ft 140 kts 253°
2026-04-25 00:33 32.31536 -99.02476 12005 ft 140 kts 253°
2026-04-25 00:33 32.31187 -99.03550 11994 ft 140 kts 253°
2026-04-25 00:34 32.30839 -99.04623 11996 ft 140 kts 253°
2026-04-25 00:34 32.30491 -99.05694 11993 ft 139 kts 253°
2026-04-25 00:34 32.30144 -99.06762 11994 ft 139 kts 253°
2026-04-25 00:34 32.29795 -99.07836 11988 ft 139 kts 253°
2026-04-25 00:35 32.29447 -99.08902 11979 ft 139 kts 253°
2026-04-25 00:35 32.29100 -99.09970 11984 ft 139 kts 254°
2026-04-25 00:35 32.28757 -99.11021 11988 ft 139 kts 253°
2026-04-25 00:35 32.28411 -99.12086 11984 ft 139 kts 253°
2026-04-25 00:36 32.28065 -99.13149 11981 ft 139 kts 253°
2026-04-25 00:36 32.27718 -99.14214 11978 ft 139 kts 253°
2026-04-25 00:36 32.27370 -99.15280 11977 ft 139 kts 253°
2026-04-25 00:36 32.27023 -99.16346 11976 ft 139 kts 253°
2026-04-25 00:37 32.26675 -99.17413 11978 ft 139 kts 253°
2026-04-25 00:37 32.26326 -99.18482 11979 ft 139 kts 253°
2026-04-25 00:37 32.25978 -99.19547 11975 ft 139 kts 253°
2026-04-25 00:37 32.25630 -99.20612 11975 ft 139 kts 253°
2026-04-25 00:38 32.25282 -99.21679 11975 ft 138 kts 253°
2026-04-25 00:38 32.24936 -99.22739 11971 ft 138 kts 253°
2026-04-25 00:38 32.24594 -99.23786 11964 ft 139 kts 253°
2026-04-25 00:38 32.24245 -99.24852 11965 ft 139 kts 253°
2026-04-25 00:39 32.23897 -99.25916 11974 ft 139 kts 253°
2026-04-25 00:39 32.23548 -99.26983 11971 ft 139 kts 253°
2026-04-25 00:39 32.23198 -99.28053 11963 ft 140 kts 253°
2026-04-25 00:39 32.22846 -99.29126 11971 ft 140 kts 253°
2026-04-25 00:40 32.22494 -99.30202 11962 ft 140 kts 253°
2026-04-25 00:40 32.22142 -99.31276 11970 ft 140 kts 253°
2026-04-25 00:40 32.21789 -99.32352 11965 ft 140 kts 253°
2026-04-25 00:40 32.21437 -99.33428 11973 ft 140 kts 253°
2026-04-25 00:41 32.21085 -99.34503 11976 ft 140 kts 253°
2026-04-25 00:41 32.20731 -99.35581 11971 ft 140 kts 253°
2026-04-25 00:41 32.20379 -99.36655 11977 ft 140 kts 253°
2026-04-25 00:41 32.20030 -99.37717 11973 ft 140 kts 253°
2026-04-25 00:42 32.19677 -99.38791 11976 ft 140 kts 253°
2026-04-25 00:42 32.19323 -99.39869 11973 ft 140 kts 253°
2026-04-25 00:42 32.18970 -99.40944 11976 ft 140 kts 253°
2026-04-25 00:42 32.18617 -99.42019 11976 ft 140 kts 253°
2026-04-25 00:43 32.18264 -99.43091 11976 ft 140 kts 253°
2026-04-25 00:43 32.17913 -99.44158 11972 ft 139 kts 253°
2026-04-25 00:43 32.17562 -99.45224 11975 ft 139 kts 253°
2026-04-25 00:43 32.17213 -99.46285 11978 ft 139 kts 253°
2026-04-25 00:44 32.16862 -99.47350 11975 ft 139 kts 253°
2026-04-25 00:44 32.16511 -99.48416 11982 ft 139 kts 253°
2026-04-25 00:44 32.16164 -99.49471 11979 ft 139 kts 253°
2026-04-25 00:44 32.15814 -99.50532 11971 ft 139 kts 253°
2026-04-25 00:45 32.15464 -99.51593 11974 ft 138 kts 253°
2026-04-25 00:45 32.15115 -99.52652 11980 ft 139 kts 253°
2026-04-25 00:45 32.14765 -99.53714 11979 ft 139 kts 253°
2026-04-25 00:45 32.14414 -99.54778 11976 ft 139 kts 253°
2026-04-25 00:46 32.14063 -99.55842 11978 ft 139 kts 253°
2026-04-25 00:46 32.13712 -99.56906 11972 ft 139 kts 253°
2026-04-25 00:46 32.13010 -99.59028 11974 ft 139 kts 253°
2026-04-25 00:47 32.12660 -99.60086 11970 ft 139 kts 253°
2026-04-25 00:47 32.12310 -99.61148 11975 ft 139 kts 253°
2026-04-25 00:47 32.11957 -99.62212 11974 ft 139 kts 253°
2026-04-25 00:47 32.11606 -99.63274 11971 ft 140 kts 253°
2026-04-25 00:48 32.11257 -99.64329 11972 ft 140 kts 253°
2026-04-25 00:48 32.10899 -99.65409 11971 ft 140 kts 253°
2026-04-25 00:48 32.10546 -99.66476 11973 ft 140 kts 253°
2026-04-25 00:48 32.10197 -99.67529 11968 ft 139 kts 253°
2026-04-25 00:49 32.09843 -99.68597 11972 ft 140 kts 253°
2026-04-25 00:49 32.09488 -99.69667 11968 ft 140 kts 253°
2026-04-25 00:49 32.09133 -99.70737 11969 ft 140 kts 253°
2026-04-25 00:49 32.08777 -99.71810 11967 ft 140 kts 252°
2026-04-25 00:50 32.08423 -99.72878 11964 ft 140 kts 253°
2026-04-25 00:50 32.08069 -99.73945 11963 ft 140 kts 253°
2026-04-25 00:50 32.07713 -99.75015 11964 ft 140 kts 253°
2026-04-25 00:50 32.07358 -99.76085 11956 ft 140 kts 253°
2026-04-25 00:51 32.07002 -99.77154 11958 ft 140 kts 253°
2026-04-25 00:51 32.06651 -99.78212 11961 ft 140 kts 253°
2026-04-25 00:51 32.06295 -99.79282 11958 ft 140 kts 253°
2026-04-25 00:51 32.05938 -99.80355 11961 ft 140 kts 253°
2026-04-25 00:52 32.05582 -99.81426 11960 ft 140 kts 253°
2026-04-25 00:52 32.05226 -99.82495 11956 ft 140 kts 253°
2026-04-25 00:52 32.04870 -99.83564 11953 ft 140 kts 253°
2026-04-25 00:52 32.04515 -99.84629 11958 ft 139 kts 253°
2026-04-25 00:53 32.04161 -99.85692 11955 ft 139 kts 253°
2026-04-25 00:53 32.03812 -99.86740 11958 ft 139 kts 253°
2026-04-25 00:53 32.03458 -99.87802 11954 ft 139 kts 253°
2026-04-25 00:53 32.03102 -99.88868 11958 ft 139 kts 253°
2026-04-25 00:54 32.02748 -99.89930 11962 ft 139 kts 253°
2026-04-25 00:54 32.02394 -99.90991 11960 ft 140 kts 253°
2026-04-25 00:54 32.02038 -99.92057 11962 ft 140 kts 253°
2026-04-25 00:54 32.01681 -99.93125 11963 ft 140 kts 252°
2026-04-25 00:55 32.01325 -99.94194 11962 ft 140 kts 253°
2026-04-25 00:55 32.00968 -99.95261 11955 ft 140 kts 252°
2026-04-25 00:55 32.00610 -99.96330 11955 ft 140 kts 253°
2026-04-25 00:55 32.00253 -99.97398 11959 ft 140 kts 253°
2026-04-25 00:56 31.99901 -99.98452 11954 ft 140 kts 252°
2026-04-25 00:56 31.99543 -99.99519 11953 ft 140 kts 253°
2026-04-25 00:56 31.99187 -100.00585 11959 ft 140 kts 252°
2026-04-25 00:56 31.98830 -100.01650 11976 ft 138 kts 252°
2026-04-25 00:57 31.98478 -100.02701 11993 ft 139 kts 253°
2026-04-25 00:57 31.98122 -100.03764 11991 ft 139 kts 253°
2026-04-25 00:57 31.97886 -100.04467 11993 ft 139 kts 253°
2026-04-25 00:57 31.97530 -100.05532 11993 ft 140 kts 253°
2026-04-25 00:58 31.97057 -100.06942 11995 ft 139 kts 253°
2026-04-25 00:58 31.96702 -100.07999 11990 ft 139 kts 253°
2026-04-25 00:58 31.96462 -100.08716 11992 ft 139 kts 253°
2026-04-25 00:58 31.96109 -100.09765 11993 ft 140 kts 253°
2026-04-25 00:59 31.95753 -100.10828 11993 ft 140 kts 253°
2026-04-25 00:59 31.95394 -100.11895 11991 ft 140 kts 253°
2026-04-25 00:59 31.95036 -100.12962 11994 ft 140 kts 252°
2026-04-25 00:59 31.94679 -100.14024 11990 ft 139 kts 253°
2026-04-25 01:00 31.94322 -100.15085 11992 ft 139 kts 252°
2026-04-25 01:00 31.93965 -100.16145 11994 ft 139 kts 253°
2026-04-25 01:00 31.93608 -100.17209 11993 ft 140 kts 253°
2026-04-25 01:00 31.93248 -100.18278 11991 ft 141 kts 252°
2026-04-25 01:01 31.92887 -100.19349 11995 ft 141 kts 252°
2026-04-25 01:01 31.92522 -100.20418 11993 ft 140 kts 252°
2026-04-25 01:01 31.92162 -100.21481 11992 ft 140 kts 252°
2026-04-25 01:01 31.91803 -100.22545 11990 ft 140 kts 252°
2026-04-25 01:02 31.91444 -100.23609 11987 ft 140 kts 252°
2026-04-25 01:02 31.91087 -100.24669 11990 ft 139 kts 252°
2026-04-25 01:02 31.90729 -100.25728 11995 ft 139 kts 252°
2026-04-25 01:02 31.90371 -100.26789 11993 ft 140 kts 252°
2026-04-25 01:03 31.90013 -100.27852 11997 ft 140 kts 252°
2026-04-25 01:03 31.89655 -100.28912 11989 ft 139 kts 252°
2026-04-25 01:03 31.89298 -100.29969 11992 ft 138 kts 252°
2026-04-25 01:03 31.88943 -100.31019 11992 ft 138 kts 252°
2026-04-25 01:04 31.88587 -100.32073 11992 ft 138 kts 252°
2026-04-25 01:04 31.88233 -100.33122 11999 ft 138 kts 252°
2026-04-25 01:04 31.87877 -100.34175 11998 ft 138 kts 252°
2026-04-25 01:04 31.87521 -100.35226 11996 ft 139 kts 252°
2026-04-25 01:05 31.87164 -100.36283 11998 ft 139 kts 252°
2026-04-25 01:05 31.86810 -100.37327 11999 ft 139 kts 252°
2026-04-25 01:05 31.86452 -100.38386 11997 ft 139 kts 252°
2026-04-25 01:05 31.86095 -100.39438 11996 ft 138 kts 252°
2026-04-25 01:06 31.85740 -100.40485 11996 ft 138 kts 252°
2026-04-25 01:06 31.85386 -100.41532 11990 ft 138 kts 252°
2026-04-25 01:06 31.85030 -100.42582 11993 ft 138 kts 252°
2026-04-25 01:06 31.84673 -100.43636 11992 ft 139 kts 252°
2026-04-25 01:07 31.84315 -100.44691 11995 ft 139 kts 252°
2026-04-25 01:07 31.83960 -100.45734 11993 ft 139 kts 252°
2026-04-25 01:07 31.83603 -100.46786 11993 ft 138 kts 252°
2026-04-25 01:07 31.83248 -100.47835 11992 ft 138 kts 252°
2026-04-25 01:08 31.82891 -100.48883 11991 ft 138 kts 252°
2026-04-25 01:08 31.82535 -100.49932 11994 ft 138 kts 252°
2026-04-25 01:08 31.82178 -100.50983 11992 ft 138 kts 252°
2026-04-25 01:08 31.81821 -100.52033 11990 ft 138 kts 252°
2026-04-25 01:09 31.81466 -100.53075 11986 ft 136 kts 252°
2026-04-25 01:09 31.81118 -100.54098 12000 ft 136 kts 252°
2026-04-25 01:09 31.80770 -100.55123 12003 ft 134 kts 252°
2026-04-25 01:09 31.80421 -100.56143 11998 ft 135 kts 252°
2026-04-25 01:10 31.80071 -100.57176 12002 ft 137 kts 252°
2026-04-25 01:10 31.79716 -100.58218 11999 ft 138 kts 252°
2026-04-25 01:10 31.79363 -100.59252 12001 ft 138 kts 252°
2026-04-25 01:10 31.79006 -100.60299 12003 ft 138 kts 252°
2026-04-25 01:11 31.78649 -100.61349 12003 ft 138 kts 252°
2026-04-25 01:11 31.78290 -100.62400 12003 ft 139 kts 252°
2026-04-25 01:11 31.77931 -100.63452 12001 ft 139 kts 252°
2026-04-25 01:11 31.77571 -100.64507 11999 ft 139 kts 252°
2026-04-25 01:12 31.77211 -100.65562 12000 ft 139 kts 252°
2026-04-25 01:12 31.76850 -100.66617 12001 ft 139 kts 252°
2026-04-25 01:12 31.76490 -100.67674 12002 ft 139 kts 252°
2026-04-25 01:12 31.76128 -100.68732 12001 ft 139 kts 252°
2026-04-25 01:13 31.75767 -100.69790 12001 ft 140 kts 252°
2026-04-25 01:13 31.75404 -100.70850 12000 ft 139 kts 252°
2026-04-25 01:13 31.75042 -100.71907 12002 ft 140 kts 251°
2026-04-25 01:13 31.74684 -100.72953 12000 ft 140 kts 252°
2026-04-25 01:14 31.74321 -100.74015 12000 ft 140 kts 252°
2026-04-25 01:14 31.73958 -100.75079 12003 ft 140 kts 252°
2026-04-25 01:14 31.73592 -100.76143 12001 ft 140 kts 251°
2026-04-25 01:14 31.73228 -100.77206 12001 ft 141 kts 252°
2026-04-25 01:15 31.72863 -100.78273 12000 ft 141 kts 251°
2026-04-25 01:15 31.72495 -100.79344 11996 ft 141 kts 251°
2026-04-25 01:15 31.72132 -100.80403 11996 ft 141 kts 251°
2026-04-25 01:15 31.71767 -100.81469 11993 ft 141 kts 251°
2026-04-25 01:16 31.71401 -100.82535 11994 ft 141 kts 251°
2026-04-25 01:16 31.71035 -100.83600 11997 ft 141 kts 251°
2026-04-25 01:16 31.70667 -100.84670 11996 ft 141 kts 251°
2026-04-25 01:16 31.70300 -100.85743 11997 ft 142 kts 251°
2026-04-25 01:17 31.69931 -100.86815 12000 ft 142 kts 251°
2026-04-25 01:17 31.69562 -100.87888 11994 ft 141 kts 251°
2026-04-25 01:17 31.69193 -100.88960 11996 ft 141 kts 251°
2026-04-25 01:17 31.68830 -100.90018 11991 ft 141 kts 251°
2026-04-25 01:18 31.68463 -100.91084 11993 ft 141 kts 251°
2026-04-25 01:18 31.68095 -100.92153 11991 ft 142 kts 251°
2026-04-25 01:18 31.67726 -100.93225 11992 ft 142 kts 251°
2026-04-25 01:18 31.67356 -100.94298 11991 ft 142 kts 251°
2026-04-25 01:19 31.66987 -100.95372 11991 ft 142 kts 251°
2026-04-25 01:19 31.66616 -100.96446 11989 ft 142 kts 251°
2026-04-25 01:19 31.66247 -100.97518 11993 ft 142 kts 251°
2026-04-25 01:19 31.65877 -100.98592 11993 ft 142 kts 251°
2026-04-25 01:20 31.65507 -100.99665 11988 ft 142 kts 251°
2026-04-25 01:20 31.65141 -101.00726 11994 ft 142 kts 251°
2026-04-25 01:20 31.64770 -101.01800 11992 ft 142 kts 251°
2026-04-25 01:20 31.64400 -101.02872 11992 ft 142 kts 251°
2026-04-25 01:21 31.64029 -101.03942 11997 ft 142 kts 251°
2026-04-25 01:21 31.63659 -101.05019 11995 ft 142 kts 251°
2026-04-25 01:21 31.63287 -101.06095 11995 ft 143 kts 251°
2026-04-25 01:21 31.62914 -101.07174 11992 ft 143 kts 251°
2026-04-25 01:22 31.62540 -101.08255 11994 ft 143 kts 251°
2026-04-25 01:22 31.62167 -101.09332 11991 ft 143 kts 251°
2026-04-25 01:22 31.61794 -101.10411 11990 ft 143 kts 251°
2026-04-25 01:22 31.61421 -101.11490 11991 ft 143 kts 251°
2026-04-25 01:23 31.61046 -101.12570 11993 ft 143 kts 251°
2026-04-25 01:23 31.60673 -101.13649 11996 ft 143 kts 251°
2026-04-25 01:23 31.60303 -101.14717 11996 ft 143 kts 251°
2026-04-25 01:23 31.59928 -101.15799 11993 ft 143 kts 251°
2026-04-25 01:24 31.59552 -101.16882 11992 ft 143 kts 251°
2026-04-25 01:24 31.59176 -101.17968 11993 ft 144 kts 251°
2026-04-25 01:24 31.58800 -101.19050 11994 ft 143 kts 251°
2026-04-25 01:24 31.58425 -101.20133 11994 ft 143 kts 251°
2026-04-25 01:25 31.58048 -101.21216 11992 ft 143 kts 251°
2026-04-25 01:25 31.57672 -101.22301 11994 ft 144 kts 251°
2026-04-25 01:25 31.57295 -101.23388 11995 ft 144 kts 251°
2026-04-25 01:25 31.56916 -101.24477 11994 ft 144 kts 251°
2026-04-25 01:26 31.56537 -101.25567 11994 ft 144 kts 251°
2026-04-25 01:26 31.56159 -101.26653 11997 ft 144 kts 251°
2026-04-25 01:26 31.55782 -101.27736 11998 ft 143 kts 251°
2026-04-25 01:26 31.55407 -101.28816 11999 ft 143 kts 251°
2026-04-25 01:27 31.55034 -101.29888 11995 ft 144 kts 251°
2026-04-25 01:27 31.54655 -101.30974 11995 ft 143 kts 251°
2026-04-25 01:27 31.54278 -101.32058 11998 ft 144 kts 251°
2026-04-25 01:28 31.53522 -101.34228 11997 ft 144 kts 251°
2026-04-25 01:28 31.53142 -101.35319 11993 ft 144 kts 251°
2026-04-25 01:28 31.52762 -101.36406 11994 ft 144 kts 251°
2026-04-25 01:28 31.52389 -101.37479 11996 ft 144 kts 251°
2026-04-25 01:29 31.52009 -101.38567 11996 ft 144 kts 251°
2026-04-25 01:29 31.51630 -101.39651 11997 ft 144 kts 251°
2026-04-25 01:29 31.51252 -101.40734 11999 ft 144 kts 251°
2026-04-25 01:29 31.50872 -101.41824 12000 ft 144 kts 251°
2026-04-25 01:30 31.50492 -101.42910 12000 ft 144 kts 251°
2026-04-25 01:30 31.50112 -101.43997 11999 ft 144 kts 251°
2026-04-25 01:30 31.49738 -101.45066 12000 ft 144 kts 251°
2026-04-25 01:30 31.49358 -101.46153 11999 ft 144 kts 251°
2026-04-25 01:31 31.48976 -101.47246 12004 ft 145 kts 251°
2026-04-25 01:31 31.48592 -101.48344 12001 ft 145 kts 251°
2026-04-25 01:31 31.48209 -101.49436 12000 ft 145 kts 251°
2026-04-25 01:31 31.47828 -101.50524 12001 ft 144 kts 251°
2026-04-25 01:32 31.47449 -101.51607 11996 ft 144 kts 251°
2026-04-25 01:32 31.47069 -101.52692 12000 ft 144 kts 251°
2026-04-25 01:32 31.46690 -101.53773 12003 ft 144 kts 250°
2026-04-25 01:32 31.46311 -101.54853 12004 ft 143 kts 251°
2026-04-25 01:33 31.45933 -101.55932 11997 ft 143 kts 251°
2026-04-25 01:33 31.45555 -101.57009 12001 ft 143 kts 250°
2026-04-25 01:33 31.45177 -101.58085 12003 ft 143 kts 250°
2026-04-25 01:33 31.44799 -101.59162 12001 ft 143 kts 250°
2026-04-25 01:34 31.44421 -101.60239 11998 ft 143 kts 250°
2026-04-25 01:34 31.44048 -101.61301 11994 ft 143 kts 250°
2026-04-25 01:34 31.43669 -101.62380 11996 ft 143 kts 250°
2026-04-25 01:34 31.43289 -101.63459 11995 ft 143 kts 250°
2026-04-25 01:35 31.42910 -101.64537 11996 ft 143 kts 250°
2026-04-25 01:35 31.42531 -101.65616 11999 ft 143 kts 250°
2026-04-25 01:35 31.42151 -101.66695 12000 ft 143 kts 250°
2026-04-25 01:35 31.41772 -101.67772 11998 ft 143 kts 250°
2026-04-25 01:36 31.41392 -101.68850 12003 ft 143 kts 250°
2026-04-25 01:36 31.41014 -101.69925 12001 ft 143 kts 250°
2026-04-25 01:36 31.40635 -101.71002 11995 ft 143 kts 250°
2026-04-25 01:36 31.40254 -101.72079 11997 ft 143 kts 250°
2026-04-25 01:37 31.39876 -101.73154 11996 ft 143 kts 250°
2026-04-25 01:37 31.39498 -101.74227 11994 ft 142 kts 250°
2026-04-25 01:37 31.39121 -101.75294 11992 ft 142 kts 250°
2026-04-25 01:37 31.38744 -101.76364 11992 ft 142 kts 250°
2026-04-25 01:38 31.38365 -101.77435 11993 ft 142 kts 250°
2026-04-25 01:38 31.37986 -101.78509 11991 ft 143 kts 250°
2026-04-25 01:38 31.37608 -101.79578 11990 ft 142 kts 250°
2026-04-25 01:38 31.37231 -101.80648 11986 ft 142 kts 250°
2026-04-25 01:39 31.36858 -101.81702 11988 ft 142 kts 250°
2026-04-25 01:39 31.36481 -101.82770 11992 ft 142 kts 250°
2026-04-25 01:39 31.36103 -101.83837 11990 ft 142 kts 250°
2026-04-25 01:39 31.35725 -101.84906 11990 ft 142 kts 249°
2026-04-25 01:40 31.35346 -101.85975 11992 ft 142 kts 249°
2026-04-25 01:40 31.34968 -101.87046 11997 ft 142 kts 249°
2026-04-25 01:40 31.34589 -101.88115 11993 ft 142 kts 249°
2026-04-25 01:40 31.34210 -101.89184 11989 ft 142 kts 249°
2026-04-25 01:41 31.33832 -101.90253 11994 ft 142 kts 249°
2026-04-25 01:41 31.33453 -101.91320 11995 ft 142 kts 249°
2026-04-25 01:41 31.33075 -101.92389 11996 ft 142 kts 249°
2026-04-25 01:41 31.32696 -101.93455 11993 ft 142 kts 249°
2026-04-25 01:42 31.32323 -101.94507 11993 ft 142 kts 249°
2026-04-25 01:42 31.31944 -101.95574 11991 ft 142 kts 249°
2026-04-25 01:42 31.31565 -101.96644 11989 ft 142 kts 249°
2026-04-25 01:42 31.31185 -101.97713 11995 ft 142 kts 249°
2026-04-25 01:43 31.30805 -101.98782 11991 ft 142 kts 249°
2026-04-25 01:43 31.30426 -101.99851 11988 ft 142 kts 249°
2026-04-25 01:43 31.30045 -102.00921 11991 ft 143 kts 249°
2026-04-25 01:43 31.29663 -102.01994 11991 ft 143 kts 249°
2026-04-25 01:44 31.29287 -102.03052 11990 ft 143 kts 249°
2026-04-25 01:44 31.28906 -102.04124 11988 ft 143 kts 249°
2026-04-25 01:44 31.28525 -102.05195 11990 ft 142 kts 249°
2026-04-25 01:44 31.28145 -102.06263 11993 ft 142 kts 249°
2026-04-25 01:45 31.27764 -102.07331 11991 ft 142 kts 248°
2026-04-25 01:45 31.27383 -102.08401 11989 ft 142 kts 249°
2026-04-25 01:45 31.27002 -102.09472 11987 ft 143 kts 249°
2026-04-25 01:45 31.26618 -102.10548 11990 ft 143 kts 249°
2026-04-25 01:46 31.26236 -102.11619 11985 ft 143 kts 249°
2026-04-25 01:46 31.25854 -102.12691 11989 ft 143 kts 248°
2026-04-25 01:46 31.25473 -102.13759 11987 ft 142 kts 248°
2026-04-25 01:46 31.25097 -102.14813 11987 ft 142 kts 248°
2026-04-25 01:47 31.24714 -102.15885 11994 ft 143 kts 248°
2026-04-25 01:47 31.24330 -102.16959 11992 ft 143 kts 248°
2026-04-25 01:47 31.23945 -102.18037 11990 ft 143 kts 249°
2026-04-25 01:47 31.23686 -102.18763 11990 ft 143 kts 248°
2026-04-25 01:48 31.23302 -102.19838 11989 ft 143 kts 248°
2026-04-25 01:48 31.22792 -102.21263 11991 ft 143 kts 248°
2026-04-25 01:48 31.22538 -102.21975 11989 ft 143 kts 248°
2026-04-25 01:48 31.22153 -102.23049 11987 ft 144 kts 248°
2026-04-25 01:49 31.21769 -102.24124 11990 ft 144 kts 248°
2026-04-25 01:49 31.21382 -102.25205 11987 ft 144 kts 248°
2026-04-25 01:49 31.20994 -102.26287 11989 ft 144 kts 248°
2026-04-25 01:49 31.20605 -102.27372 11986 ft 145 kts 248°
2026-04-25 01:50 31.20215 -102.28463 11985 ft 145 kts 248°
2026-04-25 01:50 31.19824 -102.29551 11990 ft 145 kts 248°
2026-04-25 01:50 31.19435 -102.30637 11990 ft 145 kts 248°
2026-04-25 01:50 31.19045 -102.31727 11993 ft 146 kts 248°
2026-04-25 01:51 31.18652 -102.32820 11990 ft 146 kts 248°
2026-04-25 01:51 31.18259 -102.33916 11986 ft 146 kts 248°
2026-04-25 01:51 31.17871 -102.34995 11987 ft 146 kts 248°
2026-04-25 01:51 31.17479 -102.36089 11992 ft 146 kts 248°
2026-04-25 01:52 31.17085 -102.37185 11986 ft 146 kts 248°
2026-04-25 01:52 31.16690 -102.38284 11984 ft 146 kts 248°
2026-04-25 01:52 31.16297 -102.39378 11986 ft 146 kts 248°
2026-04-25 01:52 31.15903 -102.40473 11995 ft 146 kts 248°
2026-04-25 01:53 31.15508 -102.41572 11988 ft 147 kts 248°
2026-04-25 01:53 31.15114 -102.42668 11995 ft 147 kts 248°
2026-04-25 01:53 31.14718 -102.43767 11991 ft 147 kts 248°
2026-04-25 01:53 31.14321 -102.44871 11992 ft 147 kts 248°
2026-04-25 01:54 31.13928 -102.45962 11996 ft 147 kts 248°
2026-04-25 01:54 31.13530 -102.47066 11997 ft 147 kts 248°
2026-04-25 01:54 31.13132 -102.48170 12000 ft 147 kts 248°
2026-04-25 01:54 31.12734 -102.49273 12004 ft 147 kts 248°
2026-04-25 01:55 31.12336 -102.50379 12004 ft 148 kts 248°
2026-04-25 01:55 31.11937 -102.51484 12002 ft 148 kts 248°
2026-04-25 01:55 31.11537 -102.52594 12005 ft 148 kts 248°
2026-04-25 01:55 31.11137 -102.53702 12009 ft 148 kts 248°
2026-04-25 01:56 31.10735 -102.54814 12005 ft 149 kts 248°
2026-04-25 01:56 31.10333 -102.55926 12008 ft 149 kts 248°
2026-04-25 01:56 31.09936 -102.57026 12008 ft 149 kts 248°
2026-04-25 01:56 31.09532 -102.58143 12008 ft 149 kts 248°
2026-04-25 01:57 31.08725 -102.60376 12024 ft 149 kts 248°
2026-04-25 01:57 31.08321 -102.61492 12028 ft 149 kts 248°
2026-04-25 01:57 31.07917 -102.62610 12033 ft 149 kts 248°
2026-04-25 01:58 31.07511 -102.63731 12034 ft 150 kts 247°
2026-04-25 01:58 31.07103 -102.64856 12036 ft 150 kts 247°
2026-04-25 01:58 31.06696 -102.65982 12035 ft 151 kts 248°
2026-04-25 01:58 31.06289 -102.67105 12042 ft 150 kts 247°
2026-04-25 01:59 31.05882 -102.68225 12052 ft 150 kts 247°
2026-04-25 01:59 31.05476 -102.69346 12061 ft 150 kts 247°
2026-04-25 01:59 31.05070 -102.70467 12061 ft 150 kts 247°
2026-04-25 01:59 31.04662 -102.71591 12069 ft 150 kts 247°
2026-04-25 02:00 31.04259 -102.72702 12075 ft 151 kts 247°
2026-04-25 02:00 31.03849 -102.73831 12080 ft 151 kts 247°
2026-04-25 02:00 31.03438 -102.74961 12076 ft 151 kts 247°
2026-04-25 02:00 31.03027 -102.76092 12074 ft 152 kts 247°
2026-04-25 02:01 31.02616 -102.77223 12086 ft 151 kts 247°
2026-04-25 02:01 31.02205 -102.78355 12089 ft 152 kts 247°
2026-04-25 02:01 31.01793 -102.79487 12095 ft 152 kts 247°
2026-04-25 02:01 31.01380 -102.80623 12095 ft 152 kts 247°
2026-04-25 02:02 31.00968 -102.81755 12104 ft 152 kts 247°
2026-04-25 02:02 31.00556 -102.82887 12109 ft 151 kts 247°
2026-04-25 02:02 31.00144 -102.84018 12110 ft 152 kts 247°
2026-04-25 02:02 30.99732 -102.85151 12121 ft 152 kts 247°
2026-04-25 02:03 30.99318 -102.86285 12119 ft 152 kts 247°
2026-04-25 02:03 30.98905 -102.87420 12118 ft 152 kts 247°
2026-04-25 02:03 30.98492 -102.88552 12125 ft 152 kts 246°
2026-04-25 02:03 30.98079 -102.89683 12127 ft 152 kts 246°
2026-04-25 02:04 30.97672 -102.90802 12130 ft 152 kts 246°
2026-04-25 02:04 30.97258 -102.91935 12142 ft 152 kts 246°
2026-04-25 02:04 30.96843 -102.93072 12130 ft 153 kts 246°
2026-04-25 02:04 30.96427 -102.94209 12140 ft 153 kts 246°
2026-04-25 02:05 30.96011 -102.95348 12130 ft 153 kts 246°
2026-04-25 02:05 30.95593 -102.96492 12128 ft 153 kts 246°
2026-04-25 02:05 30.95126 -102.97611 12129 ft 154 kts 234°
2026-04-25 02:05 30.94338 -102.98460 12139 ft 155 kts 223°
2026-04-25 02:06 30.93537 -102.99295 12133 ft 155 kts 224°
2026-04-25 02:06 30.92733 -103.00139 12129 ft 155 kts 224°
2026-04-25 02:06 30.91929 -103.00981 12129 ft 155 kts 224°
2026-04-25 02:06 30.91131 -103.01813 12130 ft 156 kts 224°
2026-04-25 02:07 30.90321 -103.02658 12128 ft 156 kts 224°
2026-04-25 02:07 30.89512 -103.03502 12123 ft 157 kts 223°
2026-04-25 02:07 30.88699 -103.04350 12117 ft 157 kts 224°
2026-04-25 02:07 30.87887 -103.05197 12113 ft 157 kts 223°
2026-04-25 02:08 30.87073 -103.06045 12110 ft 157 kts 223°
2026-04-25 02:08 30.86259 -103.06893 12103 ft 157 kts 223°
2026-04-25 02:08 30.85438 -103.07748 12046 ft 161 kts 224°
2026-04-25 02:08 30.84591 -103.08632 11924 ft 165 kts 223°
2026-04-25 02:09 30.83727 -103.09532 11805 ft 168 kts 223°
2026-04-25 02:09 30.82848 -103.10446 11684 ft 170 kts 223°
2026-04-25 02:09 30.81963 -103.11367 11558 ft 171 kts 223°
2026-04-25 02:09 30.81071 -103.12295 11434 ft 172 kts 223°
2026-04-25 02:10 30.80189 -103.13213 11314 ft 173 kts 223°
2026-04-25 02:10 30.79280 -103.14158 11191 ft 173 kts 223°
2026-04-25 02:10 30.78393 -103.15080 11070 ft 174 kts 223°
2026-04-25 02:10 30.77491 -103.16017 10942 ft 174 kts 223°
2026-04-25 02:11 30.76588 -103.16956 10824 ft 174 kts 223°
2026-04-25 02:11 30.75684 -103.17895 10700 ft 174 kts 223°
2026-04-25 02:11 30.74782 -103.18832 10576 ft 174 kts 223°
2026-04-25 02:11 30.73877 -103.19771 10464 ft 174 kts 223°
2026-04-25 02:12 30.72971 -103.20712 10345 ft 174 kts 223°
2026-04-25 02:12 30.72075 -103.21642 10225 ft 175 kts 223°
2026-04-25 02:12 30.71169 -103.22582 10104 ft 175 kts 223°